Regional Weather Roundup
Issued by NWS

Home | Current Version | Previous Version | Graphics & Text | Print | Product List | Glossary On
Versions: 1 2 3 4 5 6 7 8 9 10 11 12 13 14 15 16 17 18 19 20 21 22 23 24 25 26 27 28 29 30 31 32 33 34 35 36 37 38 39 40 41 42 43 44 45
000
ASUS45 KSLC 270810
RWRUT

UTAH REGIONAL WEATHER ROUNDUP
NATIONAL WEATHER SERVICE SALT LAKE CITY UT
100 AM MST SAT DEC 27 2014

UTZ001>011-023>025-270900-

NORTHERN UTAH

CITY           SKY/WX    TMP DP  RH WIND       PRES   REMARKS
BRIGHAM CITY   PTCLDY    14  10  82 CALM      30.26R
HILL AFB       PTCLDY    17   8  69 E12       30.22S WCI   4
LOGAN          CLEAR      7   4  87 CALM      30.25S
OGDEN          PTCLDY    15  10  80 S6        30.23S WCI   6
PROVO AIRPORT  PTCLDY    21  16  79 SE3       30.24S
SALT LAKE CITY PTCLDY    20  16  84 S3        30.25R
VERNAL         LGT SNOW  18  14  84 E5        30.15S FOG     WCI  11
WENDOVER       CLEAR     27  10  50 NW17      30.26R WCI  14
HEBER CITY     CLOUDY    14  12  92 CALM      30.19R
WEST JORDAN    PTCLDY    16  12  86 CALM      30.24S

$$

UTZ012>022-026-027-270900-

SOUTHERN/CENTRAL UTAH

CITY           SKY/WX    TMP DP  RH WIND       PRES   REMARKS
BLANDING       CLEAR     15  12  89 N6        30.13S WCI   6
BRYCE CANYON   PTCLDY     3  -3  76 NW8       30.08S WCI -10
CEDAR CITY     CLOUDY    15  10  80 N6        30.17R WCI   6
DELTA          CLOUDY    18  16  90 CALM      30.23S
MILFORD        CLOUDY    16  11  80 N5        30.21R WCI   9
MOAB/CYNLANDS  FLURRIES  23  17  78 NW6       30.14R WCI  16
PRICE          CLEAR     19   5  54 NW12      30.12R WCI   7
ST GEORGE      MOSUNNY   32  10  40 SW5       30.24R WCI  27
KANAB          CLEAR     25   9  50 N12       30.19R WCI  14

$$

REGIONAL REPORTS     COLORADO/ARIZONA

CITY           SKY/WX    TMP DP  RH WIND       PRES   REMARKS
CRAIG, CO      LGT SNOW   7   4  87 W5        30.11R FOG     WCI  -2
GRAND JUNCTION CLEAR     15   7  70 NW3       30.14R
RIFLE          CLOUDY    10   4  76 S3        30.14R
MONTROSE       CLOUDY    19  16  88 CALM      30.12R
CORTEZ         CLEAR     10   6  84 E6        30.06S WCI   0
PAGE, AZ       CLOUDY    31   5  33 W7        30.13R WCI  24
GRAND CANYON   CLEAR      9   6  88 NE7       30.07R WCI  -2
KINGMAN        CLEAR     25  14  63 E10       30.16F WCI  15
FLAGSTAFF      CLEAR     10   4  76 CALM      30.03S

$$

REGIONAL REPORTS    NEVADA/IDAHO/WYOMING

CITY           SKY/WX    TMP DP  RH WIND       PRES   REMARKS
LAS VEGAS, NV  CLEAR     42   7  23 NW16G25   30.22R
ELY            PTCLDY    10   6  84 W8        30.20S WCI  -2
ELKO           CLEAR     17  11  77 VRB3      30.27S
POCATELLO, ID  CLOUDY    20  18  92 SW3       30.24F
BURLEY         CLOUDY    24  16  71 W8        30.25S WCI  15
EVANSTON, WY   CLOUDY     8   5  87 SW3       30.11R
ROCK SPRINGS   CLOUDY     8   5  87 S6        30.08S WCI  -2

$$


USA.gov is the U.S. government's official web portal to all federal, state and local government web resources and services.